Find Local Weather

World > North America > United States > Florida

Ocala, Florida Regional Weather

Lat: 29.19N, Lon: 82.13W
Wx Zone: FLZ040
Feedback
Expires:201804221400;;330585
ASUS42 KTBW 221317
RWRFL 
FLORIDA REGIONAL WEATHER ROUNDUP
NATIONAL WEATHER SERVICE TAMPA BAY RUSKIN FL
900 AM EDT SUN APR 22 2018

NOTE: "FAIR" INDICATES FEW OR NO CLOUDS BELOW 12,000 FEET WITH NO
SIGNIFICANT WEATHER AND/OR OBSTRUCTIONS TO VISIBILITY.


FLZ040-043>046-052-053-057-058-063-144-221400-
INTERIOR CENTRAL FLORIDA
  
CITY           SKY/WX    TMP DP  RH WIND       PRES   REMARKS
OCALA          FAIR      72  64  76 VRB7      30.17R                  
LEESBURG       PTSUNNY   72  66  81 E9        30.17S                  
SANFORD        CLOUDY    73  64  73 E14       30.17R                  
ORLANDO EXEC   HVY RAIN  72  68  87 E5        30.17R FOG              
ORLANDO INTL   PTSUNNY   72  68  87 E8        30.17R                  
KISSIMMEE      CLOUDY    72  69  90 E10       30.17R                  
WINTER HAVEN   CLOUDY    73  68  84 E12       30.16S                  
LAKELAND       CLOUDY    73  68  83 E9G16     30.15R                  
BARTOW         DRIZZLE   72  70  94 E9        30.15R                  
SEBRING        CLOUDY    76  70  80 E10       30.14R                  
OKEECHOBEE     FAIR      73  70  88 E6        30.12S                  

$$

SKY/WX - Weather  TMP - Temperature  DP - Dewpoint  RH - Relative Humidity
WIND - Wind Direction/Speed PRES - Barometric Pressure